Location: *
(55.5817°S, 142.4781°W)
Time: 06:43:26
(UTC+00:00)

USA 290 - Pass Details

Date: 29 April 2025
Orbit: 396 x 423 km, 73.6° (Epoch: 16 April)

Event Time Altitude Azimuth Distance (km) Brightness Sun altitude
Exits shadow 14:27:31 23° 185° (S) 992 4.1 -20.5°
Maximum altitude 14:29:16 42° 125° (SE) 637 3.5 -20.2°
Drops below altitude 10° 14:32:31 10° 52° (NE) 1,536 5.8 -19.8°
Sets 14:34:38 0° 45° (NE) 2,393 6.7 -19.5°
